Dewpoint
52 52 52 52 52 52 51 51 52 52 52 53 53 53 54 54 54 49 44 39 48 51 54 37 25 24 22 23 27 33 31 34 36 36 36 37 35 36 35 35 33 36 37 38 62
52 52 52 51 51 51 51 51 51 52 52 52 53 53 54 54 49 48 51 50 53 54 32 27 25 28 19 21 23 25 28 29 33 37 35 34 34 33 32 31 32 34 34 35 60
50 51 52 52 52 51 51 50 51 52 52 52 53 53 54 54 44 39 55 55 57 51 41 38 35 26 19 20 21 23 25 31 32 30 31 30 28 27 26 25 34 29 30 31 37
51 51 51 50 50 51 51 51 51 51 52 52 52 53 54 49 32 39 59 58 56 48 39 37 27 17 15 18 18 18 21 21 21 20 21 21 23 21 22 23 26 29 30 33 36
52 52 52 51 51 51 51 51 51 51 51 52 52 53 49 35 37 45 59 55 50 45 37 35 23 18 21 19 20 17 19 19 19 19 17 17 17 18 18 22 24 27 29 34 34
52 52 52 52 51 51 51 50 50 50 50 52 52 53 45 18 28 40 47 49 47 42 33 34 23 24 21 21 20 21 21 19 18 17 17 17 16 17 19 23 22 25 28 30 33
52 52 52 51 51 51 50 50 50 50 51 52 52 52 43 18 34 39 44 39 37 37 29 30 26 23 23 20 22 22 17 16 15 16 16 18 17 17 19 23 22 23 22 24 28
52 51 51 51 51 51 52 52 52 52 52 52 53 49 32 34 39 42 36 32 31 33 25 22 25 24 23 23 21 17 13 7 11 16 14 18 12 19 17 17 19 22 22 24 26
50 50 50 50 50 51 51 52 52 52 52 53 47 41 35 44 37 32 24 20 20 22 24 23 25 23 22 20 19 17 13 16 13 15 13 16 16 19 18 16 17 19 27 20 21
51 51 51 50 50 51 51 51 50 52 51 50 46 40 36 34 33 29 21 22 22 20 19 22 22 20 20 19 13 15 16 16 16 16 20 18 16 16 18 18 17 18 19 21 22
49 50 50 50 50 51 48 40 31 29 44 29 35 35 34 35 31 23 23 21 21 17 15 18 15 16 17 19 19 20 19 19 20 20 22 19 19 19 19 19 18 18 19 21 24
49 49 48 49 50 51 45 37 37 33 28 31 32 36 36 34 28 29 26 20 19 14 18 14 12 15 17 16 17 18 17 21 23 23 23 21 19 20 19 19 19 20 19 20 21
50 48 48 49 50 44 39 38 39 35 30 28 30 30 30 31 28 28 20 19 16 15 14 12 11 16 15 15 22 20 21 22 24 27 24 21 11 17 19 20 19 19 21 20 21
50 48 49 49 42 39 37 39 39 33 28 27 25 25 28 26 23 26 21 18 17 13 14 12 14 14 13 12 21 16 22 26 26 21 16 21 14 12 18 19 20 18 18 19 20
50 49 49 48 41 37 38 40 39 35 18 28 21 20 18 15 18 19 21 18 16 13 13 12 14 13 13 12 23 16 26 25 23 21 22 21 19 14 14 13 16 17 18 21 33
50 49 49 46 44 43 42 39 37 28 23 24 21 20 21 20 20 24 22 19 19 15 16 14 16 14 14 23 26 26 24 21 22 21 17 19 18 14 12 13 16 20 26 33 35
49 49 48 44 33 40 40 36 28 25 27 21 19 20 22 23 24 26 22 22 16 14 14 16 12 23 28 22 21 21 18 15 12 12 13 18 19 18 21 21 20 22 28 33 35
49 48 47 45 43 43 36 32 25 29 25 25 20 21 23 24 24 24 24 20 26 22 19 17 17 24 26 22 21 19 19 16 12 13 11 17 18 20 25 26 31 34 35 35 35
47 44 44 44 45 38 34 28 27 29 28 27 21 23 23 24 23 23 22 23 26 26 21 22 23 25 25 25 23 24 21 22 19 21 17 18 21 25 25 26 33 33 33 33 32
42 42 41 41 39 37 32 31 31 30 28 27 21 23 21 23 23 23 23 25 28 29 26 25 23 26 26 26 24 23 25 21 24 19 16 16 18 18 22 25 26 27 29 29 31
41 37 41 41 38 35 28 30 32 28 30 30 22 21 23 24 24 24 23 25 29 29 29 28 26 25 27 25 22 22 21 26 24 25 19 16 15 24 21 23 24 28 30 32 32
39 32 40 36 30 31 29 32 33 28 32 30 29 27 26 25 24 24 25 26 31 31 28 30 28 26 26 27 28 25 25 25 25 22 25 22 18 23 25 28 31 31 32 34 32
39 37 42 35 26 26 29 30 30 27 31 28 28 29 30 26 26 26 27 31 31 29 29 31 27 23 22 22 27 27 29 31 32 32 25 23 20 25 30 30 30 33 31 30 31
36 30 33 33 31 29 29 30 30 32 30 28 27 30 29 28 28 27 28 30 30 30 34 35 30 26 21 23 27 28 29 30 32 28 26 27 26 28 30 30 31 32 31 32 37
33 30 31 22 27 29 28 31 30 28 31 31 27 28 28 26 26 27 28 28 30 33 33 34 31 30 30 32 31 28 28 29 29 29 29 27 28 30 32 33 33 35 38 36 39
32 30 32 30 32 30 28 27 28 30 30 29 28 29 28 26 26 26 27 28 28 31 34 34 32 33 29 29 30 29 30 28 27 28 29 34 33 33 33 36 36 36 36 36 40
37 36 34 29 28 27 25 29 29 30 31 32 31 30 28 29 30 31 31 31 31 31 33 35 35 32 26 28 28 26 27 30 31 33 36 32 27 31 34 35 35 36 36 37 40
Lifted_Index
10 10 10 10 10 10 10 10 10 9 9 9 9 9 9 9 9 9 9 9 8 8 8 9 9 9 8 7 6 5 4 4 3 2 1 2 3 4 5 5 4 3 3 2 -1
10 10 10 10 10 10 10 10 10 9 9 9 9 9 8 8 8 8 7 7 7 7 8 9 9 8 7 7 6 5 4 4 4 3 2 2 3 4 5 5 4 3 3 2 0
10 10 10 10 10 10 10 10 10 9 9 9 8 8 8 7 7 6 6 5 5 6 8 9 9 8 7 6 6 6 5 5 5 4 3 3 3 3 4 4 4 3 3 2 2
9 9 9 10 10 10 10 10 10 9 9 9 8 8 8 7 6 5 4 4 5 7 8 8 8 7 6 6 6 6 7 7 7 6 5 4 4 3 4 4 4 4 4 3 3
8 8 9 9 10 10 10 10 10 10 10 9 9 8 8 7 6 5 4 4 5 7 8 8 8 8 7 7 7 7 8 8 8 7 6 5 5 4 4 5 5 5 5 4 3
8 8 8 9 9 9 10 10 10 10 10 9 8 8 8 8 7 6 5 5 6 7 8 8 8 8 8 8 8 8 8 8 8 7 7 6 5 5 5 6 6 5 5 5 4
8 7 8 8 9 9 9 10 10 10 9 9 8 8 8 8 7 7 7 7 8 8 8 8 8 8 8 8 8 8 7 7 7 7 7 6 5 5 6 7 6 6 5 5 5
8 8 8 8 9 9 9 9 9 9 9 8 8 8 8 7 7 7 7 8 8 8 9 9 8 8 8 8 7 7 6 6 7 7 8 7 6 6 7 7 7 6 6 6 6
9 8 8 8 9 9 8 8 7 7 7 7 7 7 7 6 6 7 8 8 8 8 8 8 8 8 8 7 6 5 4 4 6 7 8 7 6 7 8 8 7 7 7 6 6
10 9 9 9 9 9 8 7 7 6 7 7 7 6 6 6 6 7 8 8 8 8 8 8 8 7 7 7 5 5 5 5 6 7 7 7 7 8 9 8 8 8 8 7 7
11 10 9 9 9 8 7 7 7 7 6 6 6 6 6 6 6 7 8 8 8 8 8 7 7 7 7 7 7 6 6 6 7 8 8 7 7 8 8 9 8 8 8 8 8
11 10 9 9 9 7 7 6 7 7 6 6 6 6 6 6 6 7 7 7 7 7 7 7 7 7 7 8 8 8 7 7 8 8 8 7 7 7 8 8 9 8 8 8 8
10 9 9 9 8 7 6 6 7 6 6 6 6 6 6 6 6 7 7 7 7 7 7 7 7 7 8 8 8 7 7 7 8 8 8 7 5 6 7 8 8 9 9 8 8
10 9 9 9 8 7 6 7 6 6 5 5 5 5 5 5 6 6 6 6 6 6 6 6 7 7 7 7 7 7 7 7 8 7 6 6 4 5 6 7 8 9 9 9 9
9 9 10 9 8 7 7 7 6 4 3 4 5 5 5 5 5 5 5 5 5 6 6 6 6 6 7 7 7 7 7 7 7 6 5 5 4 5 6 7 8 9 9 9 9
9 9 9 9 8 7 7 6 5 3 3 3 4 4 4 4 4 4 4 4 5 5 5 5 5 6 6 6 6 5 5 5 5 4 4 4 4 4 6 7 8 9 9 9 9
8 9 8 8 8 8 7 6 4 3 3 3 4 3 3 3 3 3 3 4 4 5 5 5 5 5 4 4 4 4 4 3 2 2 2 3 3 4 5 7 8 8 9 9 9
8 8 8 7 7 7 6 5 4 4 4 4 4 3 3 3 3 3 3 4 4 5 4 4 4 4 3 3 4 4 4 3 2 1 2 3 3 3 5 6 6 6 7 7 7
7 7 7 6 6 6 6 5 4 4 5 4 4 4 4 4 4 4 4 4 4 4 4 4 3 3 3 3 3 4 4 3 3 2 2 2 2 3 4 4 3 3 4 5 5
7 6 6 6 6 6 6 5 5 5 5 5 5 5 5 4 4 4 5 4 4 4 4 3 3 3 3 3 3 3 4 3 3 2 1 1 2 3 3 3 2 2 2 2 2
7 7 6 7 7 6 6 5 6 5 5 5 5 5 5 5 4 5 5 5 4 4 3 3 3 3 3 3 3 3 3 3 3 2 1 1 2 3 3 2 2 1 1 1 1
8 7 7 7 6 6 6 6 6 6 5 5 5 5 5 4 4 4 4 4 4 3 3 3 3 3 3 3 3 3 3 3 2 2 2 2 2 2 2 2 1 1 1 1 1
9 8 7 7 6 6 6 6 6 6 6 5 5 5 5 4 4 4 4 3 3 3 3 3 3 3 2 2 3 3 3 2 2 2 2 2 2 2 2 1 1 1 1 2 2
10 9 9 8 7 7 7 7 6 6 6 6 5 5 5 5 4 4 4 3 3 3 3 3 3 2 2 2 3 3 2 2 2 2 2 2 2 1 1 1 1 1 2 2 2
11 11 10 9 9 8 8 7 6 6 6 6 6 6 6 5 5 4 4 4 3 3 3 2 2 3 2 2 2 2 2 2 2 2 2 2 1 1 1 1 1 1 2 1 1
12 11 11 10 9 9 8 7 7 7 6 6 6 6 6 5 5 4 4 4 3 3 2 2 2 2 2 2 2 2 2 1 1 1 1 1 1 1 1 1 1 1 2 1 1
12 12 11 10 9 8 8 7 8 8 7 6 6 6 6 5 5 4 4 4 3 3 2 2 2 2 2 2 2 2 1 1 1 1 1 1 1 2 2 1 1 1 2 1 1